Time,TemperatureF,DewpointF,PressureIn,WindDirection,WindDirectionDegrees,WindSpeedMPH,WindSpeedGustMPH,Humidity,HourlyPrecipIn,Conditions,Clouds,dailyrainin,SoftwareType,DateUTC
2013-05-31 00:01:00,74.4,68.2,30.16,East,91,1.1,1.1,81,0.00,CLR,,0.00,WeatherDisplay:10.37,2013-05-31 04:01:00,
2013-05-31 00:06:00,74.3,68.1,30.17,East,85,0.0,0.0,81,0.00,CLR,,0.00,WeatherDisplay:10.37,2013-05-31 04:06:00,
2013-05-31 00:11:00,74.3,68.1,30.16,WSW,246,2.0,2.0,81,0.00,CLR,,0.00,WeatherDisplay:10.37,2013-05-31 04:11:00,
2013-05-31 00:16:00,74.2,68.0,30.17,SW,214,3.5,3.5,81,0.00,CLR,,0.00,WeatherDisplay:10.37,2013-05-31 04:16:00,
2013-05-31 00:21:00,74.1,67.9,30.17,SSW,205,1.1,1.1,81,0.00,CLR,,0.00,WeatherDisplay:10.37,2013-05-31 04:21:00,
2013-05-31 00:26:00,74.1,67.9,30.16,SE,126,3.5,3.5,81,0.00,CLR,,0.00,WeatherDisplay:10.37,2013-05-31 04:26:00,
2013-05-31 00:31:00,74.2,68.0,30.17,ESE,102,0.0,0.0,81,0.00,CLR,,0.00,WeatherDisplay:10.37,2013-05-31 04:31:00,
2013-05-31 00:36:00,74.1,67.5,30.17,SE,136,3.5,3.5,80,0.00,CLR,,0.00,WeatherDisplay:10.37,2013-05-31 04:36:00,
2013-05-31 00:41:00,74.0,67.4,30.17,SSE,151,3.5,3.5,80,0.00,CLR,,0.00,WeatherDisplay:10.37,2013-05-31 04:41:00,
2013-05-31 00:46:00,73.9,67.3,30.17,ESE,103,3.5,3.5,80,0.00,CLR,,0.00,WeatherDisplay:10.37,2013-05-31 04:46:00,
2013-05-31 00:51:00,73.8,67.6,30.17,East,96,1.1,1.1,81,0.00,CLR,,0.00,WeatherDisplay:10.37,2013-05-31 04:51:00,
2013-05-31 00:56:00,73.7,67.5,30.17,East,97,4.6,4.6,81,0.00,CLR,,0.00,WeatherDisplay:10.37,2013-05-31 04:56:00,
2013-05-31 01:01:00,73.6,67.4,30.17,SE,138,5.8,5.8,81,0.00,CLR,,0.00,WeatherDisplay:10.37,2013-05-31 05:01:00,
2013-05-31 01:06:00,73.6,67.4,30.17,NNE,22,3.5,3.5,81,0.00,CLR,,0.00,WeatherDisplay:10.37,2013-05-31 05:06:00,
2013-05-31 01:11:00,73.6,67.0,30.17,SSE,148,0.0,0.0,80,0.00,CLR,,0.00,WeatherDisplay:10.37,2013-05-31 05:11:00,
2013-05-31 01:16:00,73.5,66.9,30.17,ESE,111,2.3,2.3,80,0.00,CLR,,0.00,WeatherDisplay:10.37,2013-05-31 05:16:00,
2013-05-31 01:21:00,73.5,67.3,30.17,SW,235,1.1,1.1,81,0.00,CLR,,0.00,WeatherDisplay:10.37,2013-05-31 05:21:00,
2013-05-31 01:26:00,73.4,67.2,30.17,SSE,149,0.0,0.0,81,0.00,CLR,,0.00,WeatherDisplay:10.37,2013-05-31 05:26:00,
2013-05-31 01:31:00,73.3,67.1,30.17,SSE,160,0.0,0.0,81,0.00,CLR,,0.00,WeatherDisplay:10.37,2013-05-31 05:31:00,
2013-05-31 01:36:00,73.3,67.1,30.17,SE,146,1.1,1.1,81,0.00,CLR,,0.00,WeatherDisplay:10.37,2013-05-31 05:36:00,
2013-05-31 01:41:00,73.2,67.0,30.17,SSE,152,2.3,2.3,81,0.00,CLR,,0.00,WeatherDisplay:10.37,2013-05-31 05:41:00,
2013-05-31 01:46:00,73.1,66.9,30.17,ESE,107,0.0,0.0,81,0.00,CLR,,0.00,WeatherDisplay:10.37,2013-05-31 05:46:00,
2013-05-31 01:51:00,72.9,66.7,30.17,West,278,0.0,0.0,81,0.00,CLR,,0.00,WeatherDisplay:10.37,2013-05-31 05:51:00,
2013-05-31 01:56:00,72.8,67.0,30.17,SSE,150,3.5,3.5,82,0.00,CLR,,0.00,WeatherDisplay:10.37,2013-05-31 05:56:00,
2013-05-31 02:01:00,72.8,67.0,30.17,SSW,198,0.0,0.0,82,0.00,CLR,,0.00,WeatherDisplay:10.37,2013-05-31 06:01:00,
2013-05-31 02:06:00,72.7,66.9,30.17,SE,134,3.5,3.5,82,0.00,CLR,,0.00,WeatherDisplay:10.37,2013-05-31 06:06:00,
2013-05-31 02:11:00,72.6,66.8,30.17,East,94,1.1,1.1,82,0.00,CLR,,0.00,WeatherDisplay:10.37,2013-05-31 06:11:00,
2013-05-31 02:16:00,72.5,66.7,30.17,NE,47,0.0,0.0,82,0.00,CLR,,0.00,WeatherDisplay:10.37,2013-05-31 06:16:00,
2013-05-31 02:21:00,72.3,66.8,30.17,ENE,63,1.1,0.0,83,0.00,CLR,,0.00,WeatherDisplay:10.37,2013-05-31 06:21:00,
2013-05-31 02:26:00,72.1,66.6,30.17,East,91,0.0,0.0,83,0.00,CLR,,0.00,WeatherDisplay:10.37,2013-05-31 06:26:00,
2013-05-31 02:31:00,72.0,66.6,30.17,WSW,255,0.0,0.0,83,0.00,CLR,,0.00,WeatherDisplay:10.37,2013-05-31 06:31:00,
2013-05-31 02:36:00,71.8,66.4,30.17,SSW,212,0.0,0.0,83,0.00,CLR,,0.00,WeatherDisplay:10.37,2013-05-31 06:36:00,
2013-05-31 02:41:00,71.7,66.6,30.17,SSW,212,0.0,0.0,84,0.00,CLR,,0.00,WeatherDisplay:10.37,2013-05-31 06:41:00,
2013-05-31 02:46:00,71.5,66.4,30.17,SSW,212,0.0,0.0,84,0.00,CLR,,0.00,WeatherDisplay:10.37,2013-05-31 06:46:00,
2013-05-31 02:51:00,71.3,66.6,30.17,SSW,212,0.0,0.0,85,0.00,CLR,,0.00,WeatherDisplay:10.37,2013-05-31 06:51:00,
2013-05-31 02:56:00,71.2,66.5,30.17,SE,134,0.0,0.0,85,0.00,CLR,,0.00,WeatherDisplay:10.37,2013-05-31 06:56:00,
2013-05-31 03:01:00,71.1,66.4,30.17,ESE,108,0.0,0.0,85,0.00,CLR,,0.00,WeatherDisplay:10.37,2013-05-31 07:01:00,
2013-05-31 03:06:00,71.0,66.3,30.17,ESE,122,0.0,0.0,85,0.00,CLR,,0.00,WeatherDisplay:10.37,2013-05-31 07:06:00,
2013-05-31 03:11:00,70.9,66.2,30.17,WNW,288,0.0,0.0,85,0.00,CLR,,0.00,WeatherDisplay:10.37,2013-05-31 07:11:00,
2013-05-31 03:16:00,70.8,66.1,30.17,NE,49,0.0,0.0,85,0.00,CLR,,0.00,WeatherDisplay:10.37,2013-05-31 07:16:00,
2013-05-31 03:21:00,70.8,66.4,30.17,SW,214,0.0,0.0,86,0.00,CLR,,0.00,WeatherDisplay:10.37,2013-05-31 07:21:00,
2013-05-31 03:26:00,70.9,66.5,30.17,SW,215,2.3,2.3,86,0.00,CLR,,0.00,WeatherDisplay:10.37,2013-05-31 07:26:00,
2013-05-31 03:31:00,71.1,66.7,30.17,SW,228,3.5,3.5,86,0.00,CLR,,0.00,WeatherDisplay:10.37,2013-05-31 07:31:00,
2013-05-31 03:36:00,71.1,66.4,30.17,WSW,248,2.3,2.3,85,0.00,CLR,,0.00,WeatherDisplay:10.37,2013-05-31 07:36:00,
2013-05-31 03:41:00,71.2,66.5,30.17,SSE,165,0.0,0.0,85,0.00,CLR,,0.00,WeatherDisplay:10.37,2013-05-31 07:41:00,
2013-05-31 03:46:00,71.1,66.4,30.17,North,4,0.0,0.0,85,0.00,CLR,,0.00,WeatherDisplay:10.37,2013-05-31 07:46:00,
2013-05-31 03:51:00,71.0,66.6,30.17,NE,53,1.1,0.0,86,0.00,CLR,,0.00,WeatherDisplay:10.37,2013-05-31 07:51:00,
2013-05-31 03:56:00,70.8,66.4,30.17,WSW,246,0.0,0.0,86,0.00,CLR,,0.00,WeatherDisplay:10.37,2013-05-31 07:56:00,
2013-05-31 04:01:00,70.7,66.6,30.17,West,264,0.0,0.0,87,0.00,CLR,,0.00,WeatherDisplay:10.37,2013-05-31 08:01:00,
2013-05-31 04:06:00,70.5,66.4,30.18,ESE,122,2.3,2.3,87,0.00,CLR,,0.00,WeatherDisplay:10.37,2013-05-31 08:06:00,
2013-05-31 04:11:00,70.5,66.8,30.17,SSW,200,1.1,1.1,88,0.00,CLR,,0.00,WeatherDisplay:10.37,2013-05-31 08:11:00,
2013-05-31 04:16:00,70.3,66.6,30.18,West,266,1.1,0.0,88,0.00,CLR,,0.00,WeatherDisplay:10.37,2013-05-31 08:16:00,
2013-05-31 04:21:00,70.2,66.5,30.18,SW,214,1.1,1.1,88,0.00,CLR,,0.00,WeatherDisplay:10.37,2013-05-31 08:21:00,
2013-05-31 04:26:00,70.1,66.7,30.17,SSW,201,0.0,0.0,89,0.00,CLR,,0.00,WeatherDisplay:10.37,2013-05-31 08:26:00,
2013-05-31 04:31:00,69.9,66.5,30.17,SE,124,1.1,1.1,89,0.00,CLR,,0.00,WeatherDisplay:10.37,2013-05-31 08:31:00,
2013-05-31 04:36:00,69.8,66.4,30.17,West,278,0.0,0.0,89,0.00,CLR,,0.00,WeatherDisplay:10.37,2013-05-31 08:36:00,
2013-05-31 04:41:00,69.7,66.3,30.17,West,278,0.0,0.0,89,0.00,CLR,,0.00,WeatherDisplay:10.37,2013-05-31 08:41:00,
2013-05-31 04:46:00,69.5,66.1,30.17,WNW,282,0.0,0.0,89,0.00,CLR,,0.00,WeatherDisplay:10.37,2013-05-31 08:46:00,
2013-05-31 04:51:00,69.3,66.2,30.17,WNW,283,0.0,0.0,90,0.00,CLR,,0.00,WeatherDisplay:10.37,2013-05-31 08:51:00,
2013-05-31 04:56:00,69.1,66.0,30.17,WNW,284,0.0,0.0,90,0.00,CLR,,0.00,WeatherDisplay:10.37,2013-05-31 08:56:00,
2013-05-31 05:01:00,68.9,66.2,30.17,WNW,284,0.0,0.1,91,0.00,CLR,,0.00,WeatherDisplay:10.37,2013-05-31 09:01:00,
2013-05-31 05:06:00,68.7,66.0,30.17,WNW,284,0.0,0.0,91,0.00,CLR,,0.00,WeatherDisplay:10.37,2013-05-31 09:06:00,
2013-05-31 05:11:00,68.5,65.8,30.17,WNW,284,0.0,0.0,91,0.00,CLR,,0.00,WeatherDisplay:10.37,2013-05-31 09:11:00,
2013-05-31 05:16:00,68.3,65.9,30.17,WNW,284,0.0,0.0,92,0.00,CLR,,0.00,WeatherDisplay:10.37,2013-05-31 09:16:00,
2013-05-31 05:21:00,68.2,65.8,30.17,WNW,284,0.0,0.0,92,0.00,CLR,,0.00,WeatherDisplay:10.37,2013-05-31 09:21:00,
2013-05-31 05:26:00,68.0,65.6,30.17,WNW,284,0.0,0.0,92,0.00,CLR,,0.00,WeatherDisplay:10.37,2013-05-31 09:26:00,
2013-05-31 05:31:00,67.8,65.4,30.17,WNW,283,0.0,0.0,92,0.00,CLR,,0.00,WeatherDisplay:10.37,2013-05-31 09:31:00,
2013-05-31 05:36:00,67.5,65.1,30.17,WNW,284,0.0,0.0,92,0.00,CLR,,0.00,WeatherDisplay:10.37,2013-05-31 09:36:00,
2013-05-31 05:41:00,67.2,64.8,30.17,WNW,284,0.0,0.0,92,0.00,CLR,,0.00,WeatherDisplay:10.37,2013-05-31 09:41:00,
2013-05-31 05:46:00,67.0,64.9,30.18,WNW,284,0.0,0.0,93,0.00,CLR,,0.00,WeatherDisplay:10.37,2013-05-31 09:46:00,
2013-05-31 05:51:00,66.9,64.8,30.18,WNW,284,0.0,0.0,93,0.00,CLR,,0.00,WeatherDisplay:10.37,2013-05-31 09:51:00,
2013-05-31 05:56:00,66.9,65.1,30.18,WNW,284,0.0,0.0,94,0.00,CLR,,0.00,WeatherDisplay:10.37,2013-05-31 09:56:00,
2013-05-31 06:01:00,67.0,65.5,30.18,WNW,302,0.0,0.0,95,0.00,CLR,,0.00,WeatherDisplay:10.37,2013-05-31 10:01:00,
2013-05-31 06:06:00,67.1,65.6,30.18,WNW,300,1.1,0.0,95,0.00,CLR,,0.00,WeatherDisplay:10.37,2013-05-31 10:06:00,
2013-05-31 06:11:00,67.2,65.7,30.18,ENE,67,0.0,0.0,95,0.00,CLR,,0.00,WeatherDisplay:10.37,2013-05-31 10:11:00,
2013-05-31 06:16:00,67.1,65.6,30.18,ENE,67,0.0,0.0,95,0.00,CLR,,0.00,WeatherDisplay:10.37,2013-05-31 10:16:00,
2013-05-31 06:21:00,67.1,65.6,30.18,ENE,67,0.0,0.0,95,0.00,CLR,,0.00,WeatherDisplay:10.37,2013-05-31 10:21:00,
2013-05-31 06:26:00,67.1,65.6,30.19,ENE,67,0.0,0.0,95,0.00,CLR,,0.00,WeatherDisplay:10.37,2013-05-31 10:26:00,
2013-05-31 06:31:00,67.2,65.7,30.18,ENE,70,0.0,0.0,95,0.00,CLR,,0.00,WeatherDisplay:10.37,2013-05-31 10:31:00,
2013-05-31 06:36:00,67.3,65.8,30.19,ENE,70,0.0,0.0,95,0.00,CLR,,0.00,WeatherDisplay:10.37,2013-05-31 10:36:00,
2013-05-31 06:41:00,67.4,65.9,30.19,ENE,70,0.0,0.0,95,0.00,CLR,,0.00,WeatherDisplay:10.37,2013-05-31 10:41:00,
2013-05-31 06:46:00,67.5,66.0,30.18,ENE,70,0.0,0.0,95,0.00,CLR,,0.00,WeatherDisplay:10.37,2013-05-31 10:46:00,
2013-05-31 06:51:00,67.5,66.0,30.19,East,82,0.0,0.0,95,0.00,CLR,,0.00,WeatherDisplay:10.37,2013-05-31 10:51:00,
2013-05-31 06:56:00,67.7,66.2,30.18,SE,129,1.1,0.0,95,0.00,CLR,,0.00,WeatherDisplay:10.37,2013-05-31 10:56:00,
2013-05-31 07:01:00,67.8,66.3,30.19,East,92,1.1,0.0,95,0.00,CLR,,0.00,WeatherDisplay:10.37,2013-05-31 11:01:00,
2013-05-31 07:06:00,68.0,66.5,30.19,NNE,14,0.0,0.0,95,0.00,CLR,,0.00,WeatherDisplay:10.37,2013-05-31 11:06:00,
2013-05-31 07:11:00,68.2,66.7,30.18,North,360,2.3,2.3,95,0.00,CLR,,0.00,WeatherDisplay:10.37,2013-05-31 11:11:00,
2013-05-31 07:16:00,68.4,66.9,30.18,East,92,1.1,1.1,95,0.00,CLR,,0.00,WeatherDisplay:10.37,2013-05-31 11:16:00,
2013-05-31 07:21:00,68.7,67.2,30.19,ENE,68,1.1,1.1,95,0.00,CLR,,0.00,WeatherDisplay:10.37,2013-05-31 11:21:00,
2013-05-31 07:26:00,69.0,67.2,30.19,East,96,2.3,2.3,94,0.00,CLR,,0.00,WeatherDisplay:10.37,2013-05-31 11:26:00,
2013-05-31 07:31:00,69.4,67.6,30.19,WSW,246,0.0,0.1,94,0.00,CLR,,0.00,WeatherDisplay:10.37,2013-05-31 11:31:00,
2013-05-31 07:36:00,69.7,67.9,30.18,East,86,2.3,2.3,94,0.00,CLR,,0.00,WeatherDisplay:10.37,2013-05-31 11:36:00,
2013-05-31 07:41:00,69.9,67.8,30.18,ESE,117,0.0,0.0,93,0.00,CLR,,0.00,WeatherDisplay:10.37,2013-05-31 11:41:00,
2013-05-31 07:46:00,70.2,68.1,30.19,ENE,70,1.1,1.1,93,0.00,CLR,,0.00,WeatherDisplay:10.37,2013-05-31 11:46:00,
2013-05-31 07:51:00,70.4,68.3,30.19,NNW,338,2.3,2.3,93,0.00,CLR,,0.00,WeatherDisplay:10.37,2013-05-31 11:51:00,
2013-05-31 07:56:00,70.7,68.3,30.19,NE,36,0.0,0.0,92,0.00,CLR,,0.00,WeatherDisplay:10.37,2013-05-31 11:56:00,
2013-05-31 08:01:00,71.3,68.9,30.18,NNE,30,1.1,0.0,92,0.00,CLR,,0.00,WeatherDisplay:10.37,2013-05-31 12:01:00,
2013-05-31 08:06:00,71.7,68.6,30.18,NNE,16,2.3,2.3,90,0.00,CLR,,0.00,WeatherDisplay:10.37,2013-05-31 12:06:00,
2013-05-31 08:11:00,72.0,68.9,30.18,West,262,2.3,2.3,90,0.00,CLR,,0.00,WeatherDisplay:10.37,2013-05-31 12:11:00,
2013-05-31 08:16:00,72.2,68.8,30.19,ENE,67,1.1,1.1,89,0.00,CLR,,0.00,WeatherDisplay:10.37,2013-05-31 12:16:00,
2013-05-31 08:21:00,72.6,68.8,30.19,NNE,30,1.1,0.0,88,0.00,CLR,,0.00,WeatherDisplay:10.37,2013-05-31 12:21:00,
2013-05-31 08:26:00,73.2,69.4,30.19,NE,49,2.3,0.0,88,0.00,CLR,,0.00,WeatherDisplay:10.37,2013-05-31 12:26:00,
2013-05-31 08:31:00,73.7,69.2,30.19,NW,318,3.5,3.5,86,0.00,CLR,,0.00,WeatherDisplay:10.37,2013-05-31 12:31:00,
2013-05-31 08:36:00,73.8,69.3,30.19,SSW,212,1.1,1.1,86,0.00,CLR,,0.00,WeatherDisplay:10.37,2013-05-31 12:36:00,
2013-05-31 08:41:00,74.3,69.5,30.19,SSE,150,0.0,0.0,85,0.00,CLR,,0.00,WeatherDisplay:10.37,2013-05-31 12:41:00,
2013-05-31 08:46:00,74.8,70.0,30.19,NW,311,0.0,0.0,85,0.00,CLR,,0.00,WeatherDisplay:10.37,2013-05-31 12:46:00,
2013-05-31 08:51:00,75.2,69.7,30.19,SW,221,6.9,6.9,83,0.00,CLR,,0.00,WeatherDisplay:10.37,2013-05-31 12:51:00,
2013-05-31 08:56:00,75.3,69.4,30.19,West,263,3.5,3.5,82,0.00,CLR,,0.00,WeatherDisplay:10.37,2013-05-31 12:56:00,
2013-05-31 09:01:00,75.5,69.6,30.19,SW,224,4.0,4.0,82,0.00,CLR,,0.00,WeatherDisplay:10.37,2013-05-31 13:01:00,
2013-05-31 09:06:00,75.7,69.5,30.19,NNE,29,3.5,3.5,81,0.00,CLR,,0.00,WeatherDisplay:10.37,2013-05-31 13:06:00,
2013-05-31 09:11:00,75.9,69.6,30.19,NW,318,0.0,0.0,81,0.00,CLR,,0.00,WeatherDisplay:10.37,2013-05-31 13:11:00,
2013-05-31 09:16:00,76.5,70.2,30.19,WSW,249,1.1,1.1,81,0.00,CLR,,0.00,WeatherDisplay:10.37,2013-05-31 13:16:00,
2013-05-31 09:21:00,77.1,69.7,30.19,NW,326,3.5,3.5,78,0.00,CLR,,0.00,WeatherDisplay:10.37,2013-05-31 13:21:00,
2013-05-31 09:26:00,77.3,69.5,30.19,WSW,242,5.8,5.8,77,0.00,CLR,,0.00,WeatherDisplay:10.37,2013-05-31 13:26:00,
2013-05-31 09:31:00,76.9,69.5,30.19,South,184,2.3,2.3,78,0.00,CLR,,0.00,WeatherDisplay:10.37,2013-05-31 13:31:00,
2013-05-31 09:36:00,76.7,69.7,30.19,NNW,332,3.5,3.5,79,0.00,CLR,,0.00,WeatherDisplay:10.37,2013-05-31 13:36:00,
2013-05-31 09:41:00,76.5,69.9,30.19,East,85,3.0,3.0,80,0.00,CLR,,0.00,WeatherDisplay:10.37,2013-05-31 13:41:00,
2013-05-31 09:46:00,76.9,70.3,30.19,WNW,284,3.5,3.5,80,0.00,CLR,,0.00,WeatherDisplay:10.37,2013-05-31 13:46:00,
2013-05-31 09:51:00,77.3,69.9,30.19,SW,233,3.5,0.0,78,0.00,CLR,,0.00,WeatherDisplay:10.37,2013-05-31 13:51:00,
2013-05-31 09:56:00,77.7,69.9,30.19,ENE,72,4.0,4.0,77,0.00,CLR,,0.00,WeatherDisplay:10.37,2013-05-31 13:56:00,
2013-05-31 10:01:00,77.9,70.1,30.19,WNW,288,3.5,3.5,77,0.00,CLR,,0.00,WeatherDisplay:10.37,2013-05-31 14:01:00,
2013-05-31 10:06:00,77.9,70.1,30.19,WNW,299,0.0,0.0,77,0.00,CLR,,0.00,WeatherDisplay:10.37,2013-05-31 14:06:00,
2013-05-31 10:11:00,78.9,71.1,30.19,WSW,242,1.1,1.1,77,0.00,CLR,,0.00,WeatherDisplay:10.37,2013-05-31 14:11:00,
2013-05-31 10:16:00,79.9,70.5,30.19,SSW,211,1.1,1.1,73,0.00,CLR,,0.00,WeatherDisplay:10.37,2013-05-31 14:16:00,
2013-05-31 10:21:00,80.7,70.8,30.19,ESE,106,1.1,0.0,72,0.00,CLR,,0.00,WeatherDisplay:10.37,2013-05-31 14:21:00,
2013-05-31 10:26:00,80.5,70.2,30.19,WNW,282,3.5,3.5,71,0.00,CLR,,0.00,WeatherDisplay:10.37,2013-05-31 14:26:00,
2013-05-31 10:31:00,80.3,69.6,30.19,ENE,70,5.8,5.8,70,0.00,CLR,,0.00,WeatherDisplay:10.37,2013-05-31 14:31:00,
2013-05-31 10:36:00,80.3,69.6,30.19,West,275,4.6,4.6,70,0.00,CLR,,0.00,WeatherDisplay:10.37,2013-05-31 14:36:00,
2013-05-31 10:41:00,79.9,69.2,30.19,WSW,248,0.0,0.2,70,0.00,CLR,,0.00,WeatherDisplay:10.37,2013-05-31 14:41:00,
2013-05-31 10:46:00,79.4,68.8,30.19,West,277,3.5,3.5,70,0.00,CLR,,0.00,WeatherDisplay:10.37,2013-05-31 14:46:00,
2013-05-31 10:51:00,79.3,69.1,30.19,West,273,3.5,3.5,71,0.00,CLR,,0.00,WeatherDisplay:10.37,2013-05-31 14:51:00,
2013-05-31 10:56:00,79.6,69.4,30.19,WSW,239,2.3,2.3,71,0.00,CLR,,0.00,WeatherDisplay:10.37,2013-05-31 14:56:00,
2013-05-31 11:01:00,80.2,69.1,30.19,ENE,68,3.5,3.5,69,0.00,CLR,,0.00,WeatherDisplay:10.37,2013-05-31 15:01:00,
2013-05-31 11:06:00,80.6,69.1,30.19,WSW,246,6.9,6.9,68,0.00,CLR,,0.00,WeatherDisplay:10.37,2013-05-31 15:06:00,
2013-05-31 11:11:00,81.0,69.0,30.19,West,281,3.5,3.5,67,0.00,CLR,,0.00,WeatherDisplay:10.37,2013-05-31 15:11:00,
2013-05-31 11:16:00,81.4,68.5,30.19,ENE,64,3.5,3.5,65,0.00,CLR,,0.00,WeatherDisplay:10.37,2013-05-31 15:16:00,
2013-05-31 11:21:00,82.1,68.3,30.19,SE,126,3.0,3.0,63,0.00,CLR,,0.00,WeatherDisplay:10.37,2013-05-31 15:21:00,
2013-05-31 11:26:00,82.6,67.8,30.19,SW,231,3.5,3.5,61,0.00,CLR,,0.00,WeatherDisplay:10.37,2013-05-31 15:26:00,
2013-05-31 11:31:00,83.0,68.2,30.19,ENE,63,3.0,3.0,61,0.00,CLR,,0.00,WeatherDisplay:10.37,2013-05-31 15:31:00,
2013-05-31 11:36:00,82.7,68.8,30.19,SW,221,8.1,8.1,63,0.00,CLR,,0.00,WeatherDisplay:10.37,2013-05-31 15:36:00,
2013-05-31 11:41:00,82.8,68.9,30.19,ESE,110,1.1,1.1,63,0.00,CLR,,0.00,WeatherDisplay:10.37,2013-05-31 15:41:00,
2013-05-31 11:46:00,83.0,69.1,30.19,East,94,4.0,4.0,63,0.00,CLR,,0.00,WeatherDisplay:10.37,2013-05-31 15:46:00,
2013-05-31 11:51:00,82.7,67.4,30.19,East,96,4.0,4.0,60,0.00,CLR,,0.00,WeatherDisplay:10.37,2013-05-31 15:51:00,
2013-05-31 11:56:00,82.5,68.2,30.19,WSW,256,3.0,3.0,62,0.00,CLR,,0.00,WeatherDisplay:10.37,2013-05-31 15:56:00,
2013-05-31 12:01:00,82.8,68.4,30.19,WNW,293,3.5,3.5,62,0.00,CLR,,0.00,WeatherDisplay:10.37,2013-05-31 16:01:00,
2013-05-31 12:06:00,83.3,67.5,30.19,East,101,3.5,3.5,59,0.00,CLR,,0.00,WeatherDisplay:10.37,2013-05-31 16:06:00,
2013-05-31 12:11:00,83.9,68.5,30.19,NW,314,4.6,4.6,60,0.00,CLR,,0.00,WeatherDisplay:10.37,2013-05-31 16:11:00,
2013-05-31 12:16:00,83.9,68.0,30.19,SE,146,3.5,3.5,59,0.00,CLR,,0.00,WeatherDisplay:10.37,2013-05-31 16:16:00,
2013-05-31 12:21:00,84.3,67.9,30.19,WSW,255,3.0,3.0,58,0.00,CLR,,0.00,WeatherDisplay:10.37,2013-05-31 16:21:00,
2013-05-31 12:26:00,83.9,66.5,30.19,NW,320,1.1,1.1,56,0.00,CLR,,0.00,WeatherDisplay:10.37,2013-05-31 16:26:00,
2013-05-31 12:31:00,84.0,67.6,30.18,WSW,238,2.0,2.0,58,0.00,CLR,,0.00,WeatherDisplay:10.37,2013-05-31 16:31:00,
2013-05-31 12:36:00,84.2,68.3,30.18,West,274,3.5,3.5,59,0.00,CLR,,0.00,WeatherDisplay:10.37,2013-05-31 16:36:00,
2013-05-31 12:41:00,83.9,68.0,30.18,NNW,333,2.3,2.3,59,0.00,CLR,,0.00,WeatherDisplay:10.37,2013-05-31 16:41:00,
2013-05-31 12:46:00,84.2,68.3,30.18,ESE,106,4.6,4.6,59,0.00,CLR,,0.00,WeatherDisplay:10.37,2013-05-31 16:46:00,
2013-05-31 12:51:00,84.3,66.9,30.18,NW,311,3.5,3.5,56,0.00,CLR,,0.00,WeatherDisplay:10.37,2013-05-31 16:51:00,
2013-05-31 12:56:00,84.4,68.5,30.17,WNW,284,1.1,1.1,59,0.00,CLR,,0.00,WeatherDisplay:10.37,2013-05-31 16:56:00,
2013-05-31 13:02:00,84.0,66.1,30.17,WSW,248,5.8,5.8,55,0.00,CLR,,0.00,WeatherDisplay:10.37,2013-05-31 17:02:00,
2013-05-31 13:07:00,83.5,66.7,30.17,ENE,75,3.5,3.5,57,0.00,CLR,,0.00,WeatherDisplay:10.37,2013-05-31 17:07:00,
2013-05-31 13:12:00,83.9,66.5,30.17,SE,130,5.8,5.8,56,0.00,CLR,,0.00,WeatherDisplay:10.37,2013-05-31 17:12:00,
2013-05-31 13:17:00,84.5,67.6,30.17,WSW,256,1.1,1.1,57,0.00,CLR,,0.00,WeatherDisplay:10.37,2013-05-31 17:17:00,
2013-05-31 13:22:00,84.7,68.3,30.17,ENE,60,1.1,1.1,58,0.00,CLR,,0.00,WeatherDisplay:10.37,2013-05-31 17:22:00,
2013-05-31 13:27:00,84.9,67.5,30.17,North,349,4.6,4.6,56,0.00,CLR,,0.00,WeatherDisplay:10.37,2013-05-31 17:27:00,
2013-05-31 13:32:00,84.9,67.5,30.17,NE,47,5.8,5.8,56,0.00,CLR,,0.00,WeatherDisplay:10.37,2013-05-31 17:32:00,
2013-05-31 13:37:00,85.2,69.3,30.16,SSE,160,2.3,2.3,59,0.00,CLR,,0.00,WeatherDisplay:10.37,2013-05-31 17:37:00,
2013-05-31 13:42:00,85.3,67.3,30.16,West,270,2.3,2.3,55,0.00,CLR,,0.00,WeatherDisplay:10.37,2013-05-31 17:42:00,
2013-05-31 13:47:00,85.8,66.1,30.16,SSW,199,2.3,2.3,52,0.00,CLR,,0.00,WeatherDisplay:10.37,2013-05-31 17:47:00,
2013-05-31 13:52:00,86.1,67.0,30.16,North,9,4.6,4.6,53,0.00,CLR,,0.00,WeatherDisplay:10.37,2013-05-31 17:52:00,
2013-05-31 13:57:00,85.8,66.1,30.15,ESE,113,4.0,4.0,52,0.00,CLR,,0.00,WeatherDisplay:10.37,2013-05-31 17:57:00,
2013-05-31 14:02:00,86.0,65.8,30.15,ENE,65,3.5,3.5,51,0.00,CLR,,0.00,WeatherDisplay:10.37,2013-05-31 18:02:00,
2013-05-31 14:07:00,86.1,65.3,30.15,East,98,2.3,2.3,50,0.00,CLR,,0.00,WeatherDisplay:10.37,2013-05-31 18:07:00,
2013-05-31 14:12:00,86.2,64.2,30.15,NNW,342,3.5,3.5,48,0.00,CLR,,0.00,WeatherDisplay:10.37,2013-05-31 18:12:00,
2013-05-31 14:17:00,86.4,65.6,30.15,SW,221,4.6,4.6,50,0.00,CLR,,0.00,WeatherDisplay:10.37,2013-05-31 18:17:00,
2013-05-31 14:22:00,86.0,65.8,30.15,West,276,3.5,3.5,51,0.00,CLR,,0.00,WeatherDisplay:10.37,2013-05-31 18:22:00,
2013-05-31 14:27:00,86.4,65.0,30.15,North,4,2.3,2.3,49,0.00,CLR,,0.00,WeatherDisplay:10.37,2013-05-31 18:27:00,
2013-05-31 14:32:00,86.5,65.1,30.15,ESE,119,4.6,4.6,49,0.00,CLR,,0.00,WeatherDisplay:10.37,2013-05-31 18:32:00,
2013-05-31 14:37:00,86.4,65.0,30.14,SW,215,3.5,3.5,49,0.00,CLR,,0.00,WeatherDisplay:10.37,2013-05-31 18:37:00,
2013-05-31 14:42:00,86.7,64.7,30.14,ESE,104,3.5,3.5,48,0.00,CLR,,0.00,WeatherDisplay:10.37,2013-05-31 18:42:00,
2013-05-31 14:47:00,86.9,64.2,30.14,WNW,287,6.9,6.9,47,0.00,CLR,,0.00,WeatherDisplay:10.37,2013-05-31 18:47:00,
2013-05-31 14:52:00,86.6,65.2,30.14,North,360,2.3,2.3,49,0.00,CLR,,0.00,WeatherDisplay:10.37,2013-05-31 18:52:00,
2013-05-31 14:57:00,86.8,64.8,30.13,ENE,78,2.0,2.0,48,0.00,CLR,,0.00,WeatherDisplay:10.37,2013-05-31 18:57:00,
2013-05-31 15:02:00,87.1,63.8,30.13,NE,40,8.1,8.1,46,0.00,CLR,,0.00,WeatherDisplay:10.37,2013-05-31 19:02:00,
2013-05-31 15:07:00,86.7,64.1,30.13,WSW,250,5.8,5.8,47,0.00,CLR,,0.00,WeatherDisplay:10.37,2013-05-31 19:07:00,
2013-05-31 15:12:00,87.1,65.6,30.12,WSW,240,3.5,3.5,49,0.00,CLR,,0.00,WeatherDisplay:10.37,2013-05-31 19:12:00,
2013-05-31 15:17:00,86.9,64.8,30.13,SE,125,3.0,3.0,48,0.00,CLR,,0.00,WeatherDisplay:10.37,2013-05-31 19:17:00,
2013-05-31 15:22:00,86.7,65.8,30.12,WNW,301,1.1,0.0,50,0.00,CLR,,0.00,WeatherDisplay:10.37,2013-05-31 19:22:00,
2013-05-31 15:27:00,87.4,66.5,30.12,NNW,342,2.0,2.0,50,0.00,CLR,,0.00,WeatherDisplay:10.37,2013-05-31 19:27:00,
2013-05-31 15:32:00,87.4,64.1,30.12,SW,231,8.1,8.1,46,0.00,CLR,,0.00,WeatherDisplay:10.37,2013-05-31 19:32:00,
2013-05-31 15:37:00,87.5,65.4,30.12,NNW,333,1.1,1.1,48,0.00,CLR,,0.00,WeatherDisplay:10.37,2013-05-31 19:37:00,
2013-05-31 15:42:00,87.5,65.4,30.12,NE,54,3.5,3.5,48,0.00,CLR,,0.00,WeatherDisplay:10.37,2013-05-31 19:42:00,
2013-05-31 15:47:00,87.7,65.6,30.11,ESE,119,5.0,5.0,48,0.00,CLR,,0.00,WeatherDisplay:10.37,2013-05-31 19:47:00,
2013-05-31 15:52:00,88.0,65.8,30.11,SSE,158,2.0,2.0,48,0.00,CLR,,0.00,WeatherDisplay:10.37,2013-05-31 19:52:00,
2013-05-31 15:57:00,88.0,66.4,30.11,West,271,3.5,3.5,49,0.00,CLR,,0.00,WeatherDisplay:10.37,2013-05-31 19:57:00,
2013-05-31 16:02:00,87.5,64.8,30.10,WNW,291,5.8,5.8,47,0.00,CLR,,0.00,WeatherDisplay:10.37,2013-05-31 20:02:00,
2013-05-31 16:07:00,87.3,65.8,30.10,SW,227,1.1,1.1,49,0.00,CLR,,0.00,WeatherDisplay:10.37,2013-05-31 20:07:00,
2013-05-31 16:12:00,87.6,65.5,30.10,NW,304,1.1,1.1,48,0.00,CLR,,0.00,WeatherDisplay:10.37,2013-05-31 20:12:00,
2013-05-31 16:17:00,87.4,64.7,30.10,NE,51,3.5,3.5,47,0.00,CLR,,0.00,WeatherDisplay:10.37,2013-05-31 20:17:00,
2013-05-31 16:22:00,87.6,65.5,30.10,ESE,114,3.0,3.0,48,0.00,CLR,,0.00,WeatherDisplay:10.37,2013-05-31 20:22:00,
2013-05-31 16:27:00,87.8,65.7,30.10,North,8,1.1,0.0,48,0.00,CLR,,0.00,WeatherDisplay:10.37,2013-05-31 20:27:00,
2013-05-31 16:32:00,88.2,66.0,30.10,WNW,291,2.3,2.3,48,0.00,CLR,,0.00,WeatherDisplay:10.37,2013-05-31 20:32:00,
2013-05-31 16:37:00,88.4,66.2,30.10,WNW,297,3.5,3.5,48,0.00,CLR,,0.00,WeatherDisplay:10.37,2013-05-31 20:37:00,
2013-05-31 16:42:00,88.3,66.1,30.09,East,91,3.5,3.5,48,0.00,CLR,,0.00,WeatherDisplay:10.37,2013-05-31 20:42:00,
2013-05-31 16:47:00,88.2,66.6,30.09,East,82,8.0,8.0,49,0.00,CLR,,0.00,WeatherDisplay:10.37,2013-05-31 20:47:00,
2013-05-31 16:52:00,87.9,66.4,30.09,East,91,3.5,3.5,49,0.00,CLR,,0.00,WeatherDisplay:10.37,2013-05-31 20:52:00,
2013-05-31 16:57:00,88.1,67.1,30.09,WSW,255,3.5,3.5,50,0.00,CLR,,0.00,WeatherDisplay:10.37,2013-05-31 20:57:00,
2013-05-31 17:02:00,88.4,66.8,30.09,NW,318,2.3,2.3,49,0.00,CLR,,0.00,WeatherDisplay:10.37,2013-05-31 21:02:00,
2013-05-31 17:07:00,88.4,66.8,30.09,NE,56,4.0,4.0,49,0.00,CLR,,0.00,WeatherDisplay:10.37,2013-05-31 21:07:00,
2013-05-31 17:12:00,88.0,66.4,30.09,ENE,72,3.5,3.5,49,0.00,CLR,,0.00,WeatherDisplay:10.37,2013-05-31 21:12:00,
2013-05-31 17:17:00,87.9,66.4,30.09,ESE,122,3.5,3.5,49,0.00,CLR,,0.00,WeatherDisplay:10.37,2013-05-31 21:17:00,
2013-05-31 17:22:00,88.2,67.2,30.09,SSW,212,3.0,3.0,50,0.00,CLR,,0.00,WeatherDisplay:10.37,2013-05-31 21:22:00,
2013-05-31 17:27:00,88.7,67.1,30.08,West,271,0.0,0.0,49,0.00,CLR,,0.00,WeatherDisplay:10.37,2013-05-31 21:27:00,
2013-05-31 17:32:00,88.8,67.2,30.08,SSW,212,3.5,3.5,49,0.00,CLR,,0.00,WeatherDisplay:10.37,2013-05-31 21:32:00,
2013-05-31 17:37:00,88.3,66.1,30.08,East,85,4.0,4.0,48,0.00,CLR,,0.00,WeatherDisplay:10.37,2013-05-31 21:37:00,
2013-05-31 17:42:00,87.6,66.7,30.08,SE,136,0.0,0.0,50,0.00,CLR,,0.00,WeatherDisplay:10.37,2013-05-31 21:42:00,
2013-05-31 17:47:00,87.5,67.1,30.08,West,260,1.1,0.0,51,0.00,CLR,,0.00,WeatherDisplay:10.37,2013-05-31 21:47:00,
2013-05-31 17:52:00,87.4,66.5,30.08,WNW,287,3.5,3.5,50,0.00,CLR,,0.00,WeatherDisplay:10.37,2013-05-31 21:52:00,
2013-05-31 17:57:00,87.2,66.3,30.08,WSW,250,2.0,2.0,50,0.00,CLR,,0.00,WeatherDisplay:10.37,2013-05-31 21:57:00,
2013-05-31 18:02:00,87.1,66.8,30.08,WNW,300,1.1,1.1,51,0.00,CLR,,0.00,WeatherDisplay:10.37,2013-05-31 22:02:00,
2013-05-31 18:07:00,87.2,66.9,30.08,ESE,103,1.1,1.1,51,0.00,CLR,,0.00,WeatherDisplay:10.37,2013-05-31 22:07:00,
2013-05-31 18:12:00,87.6,66.7,30.07,West,273,1.1,1.1,50,0.00,CLR,,0.00,WeatherDisplay:10.37,2013-05-31 22:12:00,
2013-05-31 18:17:00,87.7,66.2,30.08,ENE,58,2.3,2.3,49,0.00,CLR,,0.00,WeatherDisplay:10.37,2013-05-31 22:17:00,
2013-05-31 18:22:00,87.4,66.5,30.08,West,265,2.3,2.3,50,0.00,CLR,,0.00,WeatherDisplay:10.37,2013-05-31 22:22:00,
2013-05-31 18:27:00,86.4,66.7,30.07,NW,325,4.6,4.6,52,0.00,CLR,,0.00,WeatherDisplay:10.37,2013-05-31 22:27:00,
2013-05-31 18:32:00,85.7,66.6,30.08,SW,231,2.3,2.3,53,0.00,CLR,,0.00,WeatherDisplay:10.37,2013-05-31 22:32:00,
2013-05-31 18:37:00,85.6,66.0,30.07,West,270,3.5,3.5,52,0.00,CLR,,0.00,WeatherDisplay:10.37,2013-05-31 22:37:00,
2013-05-31 18:42:00,85.7,67.1,30.07,ENE,75,0.0,0.4,54,0.00,CLR,,0.00,WeatherDisplay:10.37,2013-05-31 22:42:00,
2013-05-31 18:47:00,85.6,67.6,30.07,NW,321,0.0,0.0,55,0.00,CLR,,0.00,WeatherDisplay:10.37,2013-05-31 22:47:00,
2013-05-31 18:52:00,85.5,67.0,30.07,SSE,155,2.3,2.3,54,0.00,CLR,,0.00,WeatherDisplay:10.37,2013-05-31 22:52:00,
2013-05-31 18:57:00,85.4,66.9,30.07,ESE,105,2.3,2.3,54,0.00,CLR,,0.00,WeatherDisplay:10.37,2013-05-31 22:57:00,
2013-05-31 19:02:00,85.2,67.2,30.07,West,264,0.0,0.0,55,0.00,CLR,,0.00,WeatherDisplay:10.37,2013-05-31 23:02:00,
2013-05-31 19:07:00,85.1,67.1,30.07,WNW,289,0.0,0.0,55,0.00,CLR,,0.00,WeatherDisplay:10.37,2013-05-31 23:07:00,
2013-05-31 19:12:00,85.0,67.0,30.07,NW,312,1.1,0.0,55,0.00,CLR,,0.00,WeatherDisplay:10.37,2013-05-31 23:12:00,
2013-05-31 19:17:00,84.7,66.7,30.07,ESE,118,1.1,0.0,55,0.00,CLR,,0.00,WeatherDisplay:10.37,2013-05-31 23:17:00,
2013-05-31 19:22:00,84.4,66.5,30.07,NE,41,2.3,2.3,55,0.00,CLR,,0.00,WeatherDisplay:10.37,2013-05-31 23:22:00,
2013-05-31 19:27:00,84.1,66.2,30.07,WSW,243,2.3,2.3,55,0.00,CLR,,0.00,WeatherDisplay:10.37,2013-05-31 23:27:00,
2013-05-31 19:32:00,83.8,66.4,30.07,SW,229,1.1,0.0,56,0.00,CLR,,0.00,WeatherDisplay:10.37,2013-05-31 23:32:00,
2013-05-31 19:37:00,83.5,66.2,30.07,WNW,292,1.1,1.1,56,0.00,CLR,,0.00,WeatherDisplay:10.37,2013-05-31 23:37:00,
2013-05-31 19:42:00,83.2,66.4,30.07,WNW,290,0.0,0.0,57,0.00,CLR,,0.00,WeatherDisplay:10.37,2013-05-31 23:42:00,
2013-05-31 19:47:00,82.8,67.0,30.07,NNE,23,0.0,0.0,59,0.00,CLR,,0.00,WeatherDisplay:10.37,2013-05-31 23:47:00,
2013-05-31 19:52:00,82.4,66.6,30.07,NNW,345,1.1,0.0,59,0.00,CLR,,0.00,WeatherDisplay:10.37,2013-05-31 23:52:00,
2013-05-31 19:57:00,82.1,66.8,30.07,NW,307,0.0,0.0,60,0.00,CLR,,0.00,WeatherDisplay:10.37,2013-05-31 23:57:00,
2013-05-31 20:02:00,81.8,66.6,30.07,SSW,195,0.0,0.2,60,0.00,CLR,,0.00,WeatherDisplay:10.37,2013-06-01 00:02:00,
2013-05-31 20:07:00,81.5,66.8,30.07,SSW,198,0.0,0.0,61,0.00,CLR,,0.00,WeatherDisplay:10.37,2013-06-01 00:07:00,
2013-05-31 20:12:00,81.1,66.8,30.07,SSW,198,0.0,0.0,62,0.00,CLR,,0.00,WeatherDisplay:10.37,2013-06-01 00:12:00,
2013-05-31 20:17:00,80.8,67.0,30.07,SSW,197,0.0,0.0,63,0.00,CLR,,0.00,WeatherDisplay:10.37,2013-06-01 00:17:00,
2013-05-31 20:22:00,80.3,67.0,30.07,SSW,197,0.0,0.0,64,0.00,CLR,,0.00,WeatherDisplay:10.37,2013-06-01 00:22:00,
2013-05-31 20:27:00,79.8,67.0,30.07,SSW,197,0.0,0.0,65,0.00,CLR,,0.00,WeatherDisplay:10.37,2013-06-01 00:27:00,
2013-05-31 20:32:00,79.4,66.6,30.08,SSW,198,0.0,0.0,65,0.00,CLR,,0.00,WeatherDisplay:10.37,2013-06-01 00:32:00,
2013-05-31 20:37:00,79.1,66.8,30.07,SSW,197,0.0,0.0,66,0.00,CLR,,0.00,WeatherDisplay:10.37,2013-06-01 00:37:00,
2013-05-31 20:42:00,78.7,66.8,30.08,SSW,197,0.0,0.0,67,0.00,CLR,,0.00,WeatherDisplay:10.37,2013-06-01 00:42:00,
2013-05-31 20:47:00,78.3,66.9,30.08,SSW,198,0.0,0.0,68,0.00,CLR,,0.00,WeatherDisplay:10.37,2013-06-01 00:47:00,
2013-05-31 20:52:00,77.9,66.9,30.08,SSW,198,0.0,0.0,69,0.00,CLR,,0.00,WeatherDisplay:10.37,2013-06-01 00:52:00,
2013-05-31 20:57:00,77.7,66.7,30.08,SSW,199,0.0,0.0,69,0.00,CLR,,0.00,WeatherDisplay:10.37,2013-06-01 00:57:00,
2013-05-31 21:02:00,77.4,66.4,30.08,SSW,199,0.0,0.0,69,0.00,CLR,,0.00,WeatherDisplay:10.37,2013-06-01 01:02:00,
2013-05-31 21:07:00,77.2,67.1,30.08,ENE,70,1.0,1.0,71,0.00,CLR,,0.00,WeatherDisplay:10.37,2013-06-01 01:07:00,
2013-05-31 21:12:00,77.2,67.1,30.08,ENE,70,0.0,0.0,71,0.00,CLR,,0.00,WeatherDisplay:10.37,2013-06-01 01:12:00,
2013-05-31 21:17:00,77.5,67.4,30.08,SE,129,0.0,0.0,71,0.00,CLR,,0.00,WeatherDisplay:10.37,2013-06-01 01:17:00,
2013-05-31 21:22:00,77.8,67.6,30.08,ESE,105,1.1,0.0,71,0.00,CLR,,0.00,WeatherDisplay:10.37,2013-06-01 01:22:00,
2013-05-31 21:27:00,77.9,67.7,30.08,ESE,103,0.0,0.0,71,0.00,CLR,,0.00,WeatherDisplay:10.37,2013-06-01 01:27:00,
2013-05-31 21:32:00,77.9,67.7,30.08,ESE,112,0.0,0.0,71,0.00,CLR,,0.00,WeatherDisplay:10.37,2013-06-01 01:32:00,
2013-05-31 21:37:00,77.7,68.0,30.08,SSE,156,1.1,0.0,72,0.00,CLR,,0.00,WeatherDisplay:10.37,2013-06-01 01:37:00,
2013-05-31 21:42:00,77.9,68.5,30.09,SSE,167,8.1,8.1,73,0.00,CLR,,0.00,WeatherDisplay:10.37,2013-06-01 01:42:00,
2013-05-31 21:47:00,78.1,68.7,30.09,ESE,119,1.1,1.1,73,0.00,CLR,,0.00,WeatherDisplay:10.37,2013-06-01 01:47:00,
2013-05-31 21:52:00,78.1,68.7,30.09,East,88,2.3,2.3,73,0.00,CLR,,0.00,WeatherDisplay:10.37,2013-06-01 01:52:00,
2013-05-31 21:57:00,78.1,68.7,30.09,ENE,58,1.1,1.1,73,0.00,CLR,,0.00,WeatherDisplay:10.37,2013-06-01 01:57:00,
2013-05-31 22:02:00,78.0,68.6,30.09,SE,134,2.3,2.3,73,0.00,CLR,,0.00,WeatherDisplay:10.37,2013-06-01 02:02:00,
2013-05-31 22:08:00,78.0,69.0,30.09,ESE,106,4.0,4.0,74,0.00,CLR,,0.00,WeatherDisplay:10.37,2013-06-01 02:08:00,
2013-05-31 22:13:00,77.9,68.9,30.09,ENE,72,3.5,3.5,74,0.00,CLR,,0.00,WeatherDisplay:10.37,2013-06-01 02:13:00,
2013-05-31 22:18:00,77.7,68.7,30.09,East,99,4.0,4.0,74,0.00,CLR,,0.00,WeatherDisplay:10.37,2013-06-01 02:18:00,
2013-05-31 22:23:00,77.7,69.1,30.09,SE,130,3.5,3.5,75,0.00,CLR,,0.00,WeatherDisplay:10.37,2013-06-01 02:23:00,
2013-05-31 22:28:00,77.6,69.0,30.09,East,101,3.5,3.5,75,0.00,CLR,,0.00,WeatherDisplay:10.37,2013-06-01 02:28:00,
2013-05-31 22:33:00,77.6,69.0,30.09,East,93,3.5,3.5,75,0.00,CLR,,0.00,WeatherDisplay:10.37,2013-06-01 02:33:00,
2013-05-31 22:38:00,77.5,69.3,30.09,NNE,12,1.1,1.1,76,0.00,CLR,,0.00,WeatherDisplay:10.37,2013-06-01 02:38:00,
2013-05-31 22:43:00,77.3,69.1,30.09,NE,51,2.3,2.3,76,0.00,CLR,,0.00,WeatherDisplay:10.37,2013-06-01 02:43:00,
2013-05-31 22:48:00,77.1,68.9,30.09,ESE,114,3.5,3.5,76,0.00,CLR,,0.00,WeatherDisplay:10.37,2013-06-01 02:48:00,
2013-05-31 22:53:00,77.0,69.2,30.09,SE,136,3.5,3.5,77,0.00,CLR,,0.00,WeatherDisplay:10.37,2013-06-01 02:53:00,
2013-05-31 22:58:00,77.0,69.2,30.09,East,87,1.1,1.1,77,0.00,CLR,,0.00,WeatherDisplay:10.37,2013-06-01 02:58:00,
2013-05-31 23:03:00,76.8,69.0,30.09,SE,126,0.0,0.0,77,0.00,CLR,,0.00,WeatherDisplay:10.37,2013-06-01 03:03:00,
2013-05-31 23:08:00,76.7,69.3,30.09,ENE,68,3.5,3.5,78,0.00,CLR,,0.00,WeatherDisplay:10.37,2013-06-01 03:08:00,
2013-05-31 23:13:00,76.6,69.2,30.09,NE,52,3.5,3.5,78,0.00,CLR,,0.00,WeatherDisplay:10.37,2013-06-01 03:13:00,
2013-05-31 23:18:00,76.6,69.2,30.09,ESE,122,2.3,2.3,78,0.00,CLR,,0.00,WeatherDisplay:10.37,2013-06-01 03:18:00,
2013-05-31 23:23:00,76.5,69.5,30.09,ESE,114,2.3,2.3,79,0.00,CLR,,0.00,WeatherDisplay:10.37,2013-06-01 03:23:00,
2013-05-31 23:28:00,76.4,69.4,30.09,SSE,148,2.3,2.3,79,0.00,CLR,,0.00,WeatherDisplay:10.37,2013-06-01 03:28:00,
2013-05-31 23:33:00,76.3,69.3,30.09,South,169,0.0,0.0,79,0.00,CLR,,0.00,WeatherDisplay:10.37,2013-06-01 03:33:00,
2013-05-31 23:38:00,76.2,69.6,30.09,NE,34,1.1,1.1,80,0.00,CLR,,0.00,WeatherDisplay:10.37,2013-06-01 03:38:00,
2013-05-31 23:43:00,76.1,69.5,30.09,East,86,1.1,0.0,80,0.00,CLR,,0.00,WeatherDisplay:10.37,2013-06-01 03:43:00,
2013-05-31 23:48:00,76.1,69.5,30.09,East,89,1.1,1.1,80,0.00,CLR,,0.00,WeatherDisplay:10.37,2013-06-01 03:48:00,
2013-05-31 23:53:00,76.0,69.4,30.09,ESE,102,2.3,2.3,80,0.00,CLR,,0.00,WeatherDisplay:10.37,2013-06-01 03:53:00,
2013-05-31 23:58:00,75.9,69.3,30.09,East,92,3.5,3.5,80,0.00,CLR,,0.00,WeatherDisplay:10.37,2013-06-01 03:58:00,